, CA

(GMT )
Point Mugu

Weather History for KNTD - December, 2012

Change the Weather History Date:

Tuesday, December 11, 2012

  Actual Average Record
Temperature  
Mean Temperature 52 °F -  
Max Temperature 65 °F 63 °F 77 °F (2004)
Min Temperature 39 °F 44 °F 36 °F (1999)
Degree Days  
Heating Degree Days 13    
Growing Degree Days 2 (Base 50)    
Moisture  
Dew Point 52 °F    
Average Humidity 92    
Maximum Humidity 100    
Minimum Humidity 70    
Precipitation  
Precipitation 0.00 in - - ()
Sea Level Pressure  
Sea Level Pressure 29.99 in    
Wind  
Wind Speed 5 mph (SE)    
Max Wind Speed 18 mph    
Max Gust Speed 25 mph    
Visibility 7 miles    
Events      
Averages and records for this station are not official NWS values.
T = Trace of Precipitation, MM = Missing Value Source: NWS Daily Summary

Daily Weather History Graph

Daily Weather History Graph

Search for Another Location

Airport or City:

Trip Planner

Search our weather history database for the weather conditions in past years. The results will help you decide how hot, cold, wet, or windy it might be!

Date:

Astronomy

Dec. 11, 2012 Rise Set
Actual Time 6:52 AM PST 4:47 PM PST
Civil Twilight 6:24 AM PST 5:15 PM PST
Nautical Twilight 5:53 AM PST 5:46 PM PST
Astronomical Twilight 5:23 AM PST 6:17 PM PST
Moon 4:55 AM PST (12/11) 3:29 PM PST (12/11)
Length of Visible Light 10h 50m
Length of Day
9h 55m
Waning Crescent, 4% of the Moon is Illuminated
Dec 11
Waning Crescent
Dec 13
New
Dec 19
First Quarter
Dec 28
Full
Jan 4
Last Quarter

Hourly Weather History & Observations

Time (PST) Temp. Windchill Dew Point Humidity Pressure Visibility Wind Dir Wind Speed Gust Speed Precip Events Conditions
12:54 AM 46.9 °F - 45.0 °F 93% 30.04 in - North 4.6 mph - N/A   Clear
1:54 AM 46.0 °F 44.8 °F 44.1 °F 93% 30.04 in - North 3.5 mph - N/A   Clear
2:54 AM 45.0 °F 43.5 °F 43.0 °F 93% 30.04 in - NNE 3.5 mph - N/A   Clear
3:54 AM 46.0 °F 43.9 °F 42.1 °F 86% 30.03 in - North 4.6 mph - N/A   Clear
4:54 AM 43.0 °F - 42.1 °F 97% 30.03 in - Calm Calm - N/A   Clear
5:54 AM 39.9 °F - 39.9 °F 100% 30.04 in 7.0 mi Calm Calm - N/A   Clear
6:54 AM 45.1 °F - 36.7 °F 72% 30.04 in 7.0 mi Calm Calm - N/A   Partly Cloudy
7:54 AM 48.7 °F - 42.1 °F 78% 30.05 in 7.0 mi Variable 3.5 mph - N/A   Partly Cloudy
8:54 AM 53.6 °F - 46.0 °F 76% 30.06 in 7.0 mi Calm Calm - N/A   Partly Cloudy
9:54 AM 59.9 °F - 50.0 °F 70% 30.06 in 7.0 mi Calm Calm - N/A   Partly Cloudy
10:54 AM 63.3 °F - 54.0 °F 71% 30.04 in 7.0 mi SSE 6.9 mph - N/A   Partly Cloudy
11:54 AM 64.0 °F - 55.4 °F 73% 30.01 in 7.0 mi South 8.1 mph - N/A   Clear
12:54 PM 63.0 °F - 60.1 °F 90% 29.97 in 7.0 mi South 11.5 mph - N/A   Clear
1:54 PM 65.1 °F - 60.1 °F 84% 29.96 in 6.0 mi South 12.7 mph - N/A   Haze
2:54 PM 61.0 °F - 59.0 °F 93% 29.95 in 7.0 mi South 12.7 mph - N/A   Partly Cloudy
3:54 PM 60.1 °F - 59.0 °F 96% 29.95 in 7.0 mi South 9.2 mph - N/A   Partly Cloudy
4:16 PM 60.8 °F - 59.0 °F 94% 29.95 in 7.0 mi South 18.4 mph 25.3 mph N/A   Scattered Clouds
4:52 PM 57.2 °F - 57.2 °F 100% 29.96 in 7.0 mi South 11.5 mph - N/A   Mostly Cloudy
4:54 PM 57.9 °F - 57.9 °F 100% 29.96 in 7.0 mi South 11.5 mph - N/A   Mostly Cloudy
5:13 PM 57.2 °F - 57.2 °F 100% 29.95 in - South 9.2 mph - N/A   Scattered Clouds
5:54 PM 55.9 °F - 55.9 °F 100% 29.97 in 7.0 mi South 6.9 mph - N/A   Partly Cloudy
6:29 PM 55.4 °F - 55.4 °F 100% 29.96 in 7.0 mi SSE 8.1 mph - N/A   Mostly Cloudy
6:38 PM 57.2 °F - 55.4 °F 94% 29.97 in 7.0 mi SSE 8.1 mph - N/A   Scattered Clouds
6:49 PM 57.2 °F - 55.4 °F 94% 29.97 in 7.0 mi South 6.9 mph - N/A   Mostly Cloudy
6:54 PM 57.0 °F - 55.9 °F 96% 29.97 in 7.0 mi SSE 4.6 mph - N/A   Mostly Cloudy
7:42 PM 57.2 °F - 55.4 °F 94% 29.97 in 7.0 mi SE 4.6 mph - N/A   Overcast
7:54 PM 55.9 °F - 55.9 °F 100% 29.98 in 7.0 mi East 8.1 mph - N/A   Overcast
8:54 PM 54.0 °F - 54.0 °F 100% 29.98 in 7.0 mi ENE 4.6 mph - N/A   Mostly Cloudy
9:54 PM 54.0 °F - 54.0 °F 100% 29.98 in 7.0 mi ENE 3.5 mph - N/A   Overcast
10:54 PM 54.0 °F - 54.0 °F 100% 29.98 in 7.0 mi NE 3.5 mph - N/A   Overcast
11:54 PM 54.0 °F - 54.0 °F 100% 29.98 in - ENE 3.5 mph - N/A   Overcast